Time,TemperatureF,DewpointF,PressureIn,WindDirection,WindDirectionDegrees,WindSpeedMPH,WindSpeedGustMPH,Humidity,HourlyPrecipIn,Conditions,Clouds,dailyrainin,SoftwareType,DateUTC
2013-05-05 00:01:00,45.0,15.0,29.92,SW,224,0.0,9.0,30,0.00,,,0.00,,2013-05-05 07:01:00,
2013-05-05 00:11:00,45.0,15.0,29.92,SW,224,0.0,9.0,30,0.00,,,0.00,,2013-05-05 07:11:00,
2013-05-05 00:21:00,45.0,15.0,29.92,SW,224,0.0,9.0,30,0.00,,,0.00,,2013-05-05 07:21:00,
2013-05-05 00:32:00,45.0,12.0,29.93,WSW,240,2.0,6.0,26,0.00,,,0.00,,2013-05-05 07:32:00,
2013-05-05 00:42:00,45.0,12.0,29.93,WSW,240,2.0,6.0,26,0.00,,,0.00,,2013-05-05 07:42:00,
2013-05-05 00:52:00,45.0,12.0,29.93,SW,224,1.0,2.0,26,0.00,,,0.00,,2013-05-05 07:52:00,
2013-05-05 01:02:00,45.0,12.0,29.93,SW,232,1.0,2.0,26,0.00,,,0.00,,2013-05-05 08:02:00,
2013-05-05 01:10:00,44.0,10.0,29.93,WSW,256,0.0,0.0,25,0.00,,,0.00,,2013-05-05 08:10:00,
2013-05-05 01:11:00,45.0,12.0,29.93,SW,232,1.0,2.0,26,0.00,,,0.00,,2013-05-05 08:11:00,
2013-05-05 01:21:00,45.0,12.0,29.93,SW,226,0.0,1.0,26,0.00,,,0.00,,2013-05-05 08:21:00,
2013-05-05 01:31:00,44.0,10.0,29.93,WSW,256,0.0,0.0,25,0.00,,,0.00,,2013-05-05 08:31:00,
2013-05-05 01:42:00,44.0,10.0,29.93,WSW,256,0.0,0.0,25,0.00,,,0.00,,2013-05-05 08:42:00,
2013-05-05 01:52:00,44.0,10.0,29.93,WSW,256,0.0,0.0,25,0.00,,,0.00,,2013-05-05 08:52:00,
2013-05-05 02:01:00,44.0,10.0,29.93,WSW,256,0.0,0.0,25,0.00,,,0.00,,2013-05-05 09:01:00,
2013-05-05 03:22:00,44.0,10.0,29.91,SW,219,3.0,10.0,24,0.00,,,0.00,,2013-05-05 10:22:00,
2013-05-05 03:32:00,44.0,10.0,29.91,SSW,202,3.0,10.0,24,0.00,,,0.00,,2013-05-05 10:32:00,
2013-05-05 03:42:00,44.0,10.0,29.91,SSW,202,3.0,10.0,24,0.00,,,0.00,,2013-05-05 10:42:00,
2013-05-05 03:52:00,44.0,11.0,29.91,SW,226,3.0,7.0,26,0.00,,,0.00,,2013-05-05 10:52:00,
2013-05-05 04:01:00,44.0,11.0,29.91,SW,230,2.0,7.0,26,0.00,,,0.00,,2013-05-05 11:01:00,
2013-05-05 04:11:00,44.0,11.0,29.91,SW,230,2.0,7.0,26,0.00,,,0.00,,2013-05-05 11:11:00,
2013-05-05 04:21:00,44.0,12.0,29.91,SW,233,1.0,6.0,27,0.00,,,0.00,,2013-05-05 11:21:00,
2013-05-05 04:32:00,44.0,13.0,29.91,SW,229,1.0,6.0,28,0.00,,,0.00,,2013-05-05 11:32:00,
2013-05-05 04:42:00,44.0,13.0,29.91,SW,229,1.0,6.0,28,0.00,,,0.00,,2013-05-05 11:42:00,
2013-05-05 04:52:00,44.0,14.0,29.91,SW,224,0.0,3.0,29,0.00,,,0.00,,2013-05-05 11:52:00,
2013-05-05 05:01:00,44.0,14.0,29.91,WSW,254,2.0,11.0,29,0.00,,,0.00,,2013-05-05 12:01:00,
2013-05-05 05:11:00,44.0,14.0,29.91,WSW,254,2.0,11.0,29,0.00,,,0.00,,2013-05-05 12:11:00,
2013-05-05 05:21:00,44.0,14.0,29.91,WSW,243,1.0,1.0,29,0.00,,,0.00,,2013-05-05 12:21:00,
2013-05-05 05:31:00,44.0,15.0,29.91,WSW,240,0.0,1.0,30,0.00,,,0.00,,2013-05-05 12:31:00,
2013-05-05 05:42:00,44.0,15.0,29.91,WSW,240,0.0,1.0,30,0.00,,,0.00,,2013-05-05 12:42:00,
2013-05-05 05:52:00,44.0,15.0,29.91,NW,320,0.0,2.0,31,0.00,,,0.00,,2013-05-05 12:52:00,
2013-05-05 06:01:00,44.0,15.0,29.91,West,274,0.0,0.0,31,0.00,,,0.00,,2013-05-05 13:01:00,
2013-05-05 06:11:00,44.0,15.0,29.91,West,274,0.0,0.0,31,0.00,,,0.00,,2013-05-05 13:11:00,
2013-05-05 06:21:00,44.0,15.0,29.91,WSW,237,0.0,1.0,31,0.00,,,0.00,,2013-05-05 13:21:00,
2013-05-05 06:32:00,44.0,15.0,29.91,SSW,203,2.0,4.0,31,0.00,,,0.00,,2013-05-05 13:32:00,
2013-05-05 06:42:00,44.0,15.0,29.91,SSW,203,2.0,4.0,31,0.00,,,0.00,,2013-05-05 13:42:00,
2013-05-05 06:52:00,45.0,16.0,29.91,SW,226,1.0,3.0,31,0.00,,,0.00,,2013-05-05 13:52:00,
2013-05-05 07:01:00,45.0,15.0,29.91,SW,236,0.0,0.0,30,0.00,,,0.00,,2013-05-05 14:01:00,
2013-05-05 07:11:00,45.0,15.0,29.91,SW,236,0.0,0.0,30,0.00,,,0.00,,2013-05-05 14:11:00,
2013-05-05 07:21:00,45.0,15.0,29.92,NW,312,0.0,0.0,30,0.00,,,0.00,,2013-05-05 14:21:00,
2013-05-05 07:31:00,45.0,15.0,29.92,South,182,0.0,5.0,30,0.00,,,0.00,,2013-05-05 14:31:00,
2013-05-05 07:41:00,45.0,15.0,29.92,South,182,0.0,5.0,30,0.00,,,0.00,,2013-05-05 14:41:00,
2013-05-05 07:51:00,46.0,16.0,29.92,WNW,288,0.0,2.0,29,0.00,,,0.00,,2013-05-05 14:51:00,
2013-05-05 08:01:00,46.0,16.0,29.93,NW,304,0.0,0.0,29,0.00,,,0.00,,2013-05-05 15:01:00,
2013-05-05 08:11:00,46.0,16.0,29.93,NW,304,0.0,0.0,29,0.00,,,0.00,,2013-05-05 15:11:00,
2013-05-05 08:21:00,47.0,16.0,29.93,South,188,0.0,2.0,29,0.00,,,0.00,,2013-05-05 15:21:00,
2013-05-05 08:32:00,47.0,16.0,29.93,South,188,0.0,0.0,29,0.00,,,0.00,,2013-05-05 15:32:00,
2013-05-05 08:42:00,47.0,16.0,29.93,South,188,0.0,0.0,29,0.00,,,0.00,,2013-05-05 15:42:00,
2013-05-05 08:53:00,47.0,12.0,29.93,SSW,193,0.0,7.0,24,0.00,,,0.00,,2013-05-05 15:53:00,
2013-05-05 09:02:00,46.0,11.0,29.93,WSW,256,0.0,4.0,24,0.00,,,0.00,,2013-05-05 16:02:00,
2013-05-05 09:12:00,46.0,11.0,29.93,WSW,256,0.0,4.0,24,0.00,,,0.00,,2013-05-05 16:12:00,
2013-05-05 09:22:00,47.0,15.0,29.94,North,352,0.0,1.0,27,0.00,,,0.00,,2013-05-05 16:22:00,
2013-05-05 09:32:00,47.0,13.0,29.94,SSE,147,0.0,0.0,25,0.00,,,0.00,,2013-05-05 16:32:00,
2013-05-05 09:42:00,47.0,13.0,29.94,SSE,147,0.0,0.0,25,0.00,,,0.00,,2013-05-05 16:42:00,
2013-05-05 09:52:00,47.0,13.0,29.94,WSW,251,0.0,4.0,25,0.00,,,0.00,,2013-05-05 16:52:00,
2013-05-05 10:01:00,47.0,14.0,29.94,WSW,251,0.0,1.0,26,0.00,,,0.00,,2013-05-05 17:01:00,
2013-05-05 10:12:00,47.0,14.0,29.94,WSW,251,0.0,1.0,26,0.00,,,0.00,,2013-05-05 17:12:00,
2013-05-05 10:23:00,48.0,13.0,29.94,WSW,240,0.0,1.0,24,0.00,,,0.00,,2013-05-05 17:23:00,
2013-05-05 10:31:00,48.0,14.0,29.94,WNW,285,0.0,0.0,25,0.00,,,0.00,,2013-05-05 17:31:00,
2013-05-05 10:41:00,48.0,14.0,29.94,WNW,285,0.0,0.0,25,0.00,,,0.00,,2013-05-05 17:41:00,
2013-05-05 10:52:00,48.0,14.0,29.95,WNW,287,0.0,0.0,25,0.00,,,0.00,,2013-05-05 17:52:00,
2013-05-05 11:01:00,48.0,14.0,29.95,SSW,213,1.0,4.0,25,0.00,,,0.00,,2013-05-05 18:01:00,
2013-05-05 11:11:00,48.0,14.0,29.95,SSW,213,1.0,4.0,25,0.00,,,0.00,,2013-05-05 18:11:00,
2013-05-05 11:21:00,46.0,21.0,29.96,WNW,296,0.0,0.0,36,0.00,,,0.00,,2013-05-05 18:21:00,
2013-05-05 11:31:00,46.0,21.0,29.96,SSE,151,2.0,4.0,36,0.00,,,0.00,,2013-05-05 18:31:00,
2013-05-05 11:41:00,46.0,21.0,29.96,SSE,151,2.0,4.0,36,0.00,,,0.00,,2013-05-05 18:41:00,
2013-05-05 11:52:00,48.0,22.0,29.96,SW,236,1.0,5.0,36,0.00,,,0.00,,2013-05-05 18:52:00,
2013-05-05 12:01:00,48.0,16.0,29.96,North,6,1.0,6.0,27,0.00,,,0.00,,2013-05-05 19:01:00,
2013-05-05 12:11:00,48.0,16.0,29.96,North,6,1.0,6.0,27,0.00,,,0.00,,2013-05-05 19:11:00,
2013-05-05 12:21:00,48.0,16.0,29.96,SW,224,0.0,5.0,27,0.00,,,0.00,,2013-05-05 19:21:00,
2013-05-05 12:32:00,49.0,16.0,29.96,ESE,123,1.0,6.0,27,0.00,,,0.00,,2013-05-05 19:32:00,
2013-05-05 12:41:00,49.0,16.0,29.96,ESE,123,1.0,6.0,27,0.00,,,0.00,,2013-05-05 19:41:00,
2013-05-05 12:52:00,47.0,15.0,29.96,WSW,241,2.0,7.0,27,0.00,,,0.00,,2013-05-05 19:52:00,
2013-05-05 13:01:00,47.0,15.0,29.97,SSW,208,3.0,7.0,27,0.00,,,0.00,,2013-05-05 20:01:00,
2013-05-05 13:21:00,46.0,34.0,29.96,SW,232,5.0,10.0,62,0.00,,,0.00,,2013-05-05 20:21:00,
2013-05-05 13:31:00,46.0,34.0,29.96,SSE,158,5.0,11.0,62,0.00,,,0.00,,2013-05-05 20:31:00,
2013-05-05 13:41:00,46.0,34.0,29.96,SSE,158,5.0,11.0,62,0.00,,,0.00,,2013-05-05 20:41:00,
2013-05-05 13:52:00,48.0,34.0,29.95,SW,230,2.0,7.0,58,0.00,,,0.00,,2013-05-05 20:52:00,
2013-05-05 14:01:00,49.0,35.0,29.95,SSW,199,2.0,5.0,58,0.00,,,0.00,,2013-05-05 21:01:00,
2013-05-05 14:11:00,49.0,35.0,29.95,SSW,199,2.0,5.0,58,0.00,,,0.00,,2013-05-05 21:11:00,
2013-05-05 14:21:00,48.0,33.0,29.95,SW,222,3.0,9.0,55,0.00,,,0.00,,2013-05-05 21:21:00,
2013-05-05 14:32:00,48.0,33.0,29.96,SW,229,0.0,7.0,55,0.00,,,0.00,,2013-05-05 21:32:00,
2013-05-05 14:42:00,48.0,33.0,29.96,SW,229,0.0,7.0,55,0.00,,,0.00,,2013-05-05 21:42:00,
2013-05-05 14:53:00,48.0,34.0,29.96,SSW,199,2.0,7.0,59,0.00,,,0.00,,2013-05-05 21:53:00,
2013-05-05 15:02:00,48.0,34.0,29.95,SW,223,2.0,7.0,59,0.00,,,0.00,,2013-05-05 22:02:00,
2013-05-05 15:12:00,48.0,34.0,29.95,SW,223,2.0,7.0,59,0.00,,,0.00,,2013-05-05 22:12:00,
2013-05-05 15:22:00,47.0,33.0,29.96,ESE,114,2.0,6.0,57,0.00,,,0.00,,2013-05-05 22:22:00,
2013-05-05 15:33:00,46.0,33.0,29.95,SW,216,0.0,1.0,60,0.00,,,0.00,,2013-05-05 22:33:00,
2013-05-05 15:41:00,46.0,33.0,29.95,SW,216,0.0,1.0,60,0.00,,,0.00,,2013-05-05 22:41:00,
2013-05-05 15:52:00,46.0,31.0,29.95,SW,227,1.0,7.0,55,0.00,,,0.00,,2013-05-05 22:52:00,
2013-05-05 16:02:00,47.0,32.0,29.95,SW,234,0.0,0.0,55,0.00,,,0.00,,2013-05-05 23:02:00,
2013-05-05 16:11:00,47.0,32.0,29.95,SW,234,0.0,0.0,55,0.00,,,0.00,,2013-05-05 23:11:00,
2013-05-05 16:21:00,49.0,32.0,29.95,SW,234,0.0,7.0,51,0.00,,,0.00,,2013-05-05 23:21:00,
2013-05-05 16:31:00,49.0,32.0,29.94,SW,226,3.0,9.0,51,0.00,,,0.00,,2013-05-05 23:31:00,
2013-05-05 16:41:00,49.0,32.0,29.94,SW,226,3.0,9.0,51,0.00,,,0.00,,2013-05-05 23:41:00,
2013-05-05 16:52:00,47.0,33.0,29.94,WSW,243,4.0,9.0,59,0.00,,,0.00,,2013-05-05 23:52:00,
2013-05-05 17:01:00,46.0,32.0,29.95,WSW,258,3.0,10.0,59,0.00,,,0.00,,2013-05-06 00:01:00,
2013-05-05 17:11:00,46.0,32.0,29.95,WSW,258,3.0,10.0,59,0.00,,,0.00,,2013-05-06 00:11:00,
2013-05-05 17:21:00,44.0,31.0,29.95,SSW,199,3.0,9.0,59,0.00,,,0.00,,2013-05-06 00:21:00,
2013-05-05 17:31:00,44.0,31.0,29.95,West,260,1.0,1.0,59,0.00,,,0.00,,2013-05-06 00:31:00,
2013-05-05 17:41:00,44.0,31.0,29.95,West,260,1.0,1.0,59,0.00,,,0.00,,2013-05-06 00:41:00,
2013-05-05 17:51:00,44.0,33.0,29.95,WSW,248,1.0,0.0,65,0.00,,,0.00,,2013-05-06 00:51:00,
2013-05-05 18:01:00,43.0,32.0,29.95,SW,227,1.0,4.0,65,0.00,,,0.00,,2013-05-06 01:01:00,
2013-05-05 18:11:00,43.0,32.0,29.95,SW,227,1.0,4.0,65,0.00,,,0.00,,2013-05-06 01:11:00,
2013-05-05 18:21:00,42.0,31.0,29.95,South,191,1.0,4.0,65,0.00,,,0.00,,2013-05-06 01:21:00,
2013-05-05 18:31:00,42.0,33.0,29.95,SW,233,1.0,6.0,71,0.00,,,0.00,,2013-05-06 01:31:00,
2013-05-05 18:41:00,42.0,33.0,29.95,SW,233,1.0,6.0,71,0.00,,,0.00,,2013-05-06 01:41:00,
2013-05-05 18:52:00,41.0,32.0,29.95,WSW,237,2.0,6.0,69,0.00,,,0.00,,2013-05-06 01:52:00,
2013-05-05 19:01:00,41.0,32.0,29.95,West,263,1.0,6.0,69,0.00,,,0.00,,2013-05-06 02:01:00,
2013-05-05 19:11:00,41.0,32.0,29.95,West,263,1.0,6.0,69,0.00,,,0.00,,2013-05-06 02:11:00,
2013-05-05 19:21:00,41.0,32.0,29.95,SW,226,1.0,5.0,69,0.00,,,0.00,,2013-05-06 02:21:00,
2013-05-05 19:31:00,41.0,32.0,29.94,SW,233,2.0,5.0,69,0.00,,,0.00,,2013-05-06 02:31:00,
2013-05-05 19:42:00,41.0,32.0,29.94,SW,233,2.0,5.0,69,0.00,,,0.00,,2013-05-06 02:42:00,
2013-05-05 19:51:00,40.0,31.0,29.95,SW,223,2.0,5.0,69,0.00,,,0.00,,2013-05-06 02:51:00,
2013-05-05 20:01:00,40.0,33.0,29.95,SW,226,2.0,6.0,75,0.00,,,0.00,,2013-05-06 03:01:00,
2013-05-05 20:11:00,40.0,33.0,29.95,SW,226,2.0,6.0,75,0.00,,,0.00,,2013-05-06 03:11:00,
2013-05-05 20:22:00,39.0,32.0,29.95,SSW,213,1.0,5.0,76,0.00,,,0.00,,2013-05-06 03:22:00,
2013-05-05 20:32:00,39.0,32.0,29.95,SW,224,0.0,4.0,76,0.00,,,0.00,,2013-05-06 03:32:00,
2013-05-05 20:42:00,39.0,32.0,29.95,SW,224,0.0,4.0,76,0.00,,,0.00,,2013-05-06 03:42:00,
2013-05-05 20:52:00,38.0,31.0,29.96,SSW,210,1.0,4.0,77,0.00,,,0.00,,2013-05-06 03:52:00,
2013-05-05 21:02:00,38.0,31.0,29.96,SW,224,0.0,2.0,77,0.00,,,0.00,,2013-05-06 04:02:00,
2013-05-05 21:12:00,38.0,31.0,29.96,SW,224,0.0,2.0,77,0.00,,,0.00,,2013-05-06 04:12:00,
2013-05-05 21:23:00,38.0,31.0,29.96,SW,224,0.0,0.0,77,0.00,,,0.00,,2013-05-06 04:23:00,
2013-05-05 21:32:00,38.0,31.0,29.96,NW,316,0.0,0.0,77,0.00,,,0.00,,2013-05-06 04:32:00,
2013-05-05 21:42:00,38.0,31.0,29.96,NW,316,0.0,0.0,77,0.00,,,0.00,,2013-05-06 04:42:00,
2013-05-05 21:52:00,38.0,31.0,29.96,SW,234,0.0,0.0,77,0.00,,,0.00,,2013-05-06 04:52:00,
2013-05-05 22:02:00,38.0,31.0,29.96,SW,234,0.0,0.0,77,0.00,,,0.00,,2013-05-06 05:02:00,
2013-05-05 22:12:00,38.0,31.0,29.96,SW,234,0.0,0.0,77,0.00,,,0.00,,2013-05-06 05:12:00,
2013-05-05 22:22:00,39.0,34.0,29.96,WNW,301,0.0,0.0,81,0.00,,,0.00,,2013-05-06 05:22:00,
2013-05-05 22:31:00,39.0,34.0,29.95,WNW,301,0.0,0.0,81,0.00,,,0.00,,2013-05-06 05:31:00,
2013-05-05 22:42:00,39.0,34.0,29.95,WNW,301,0.0,0.0,81,0.00,,,0.00,,2013-05-06 05:42:00,
2013-05-05 22:52:00,39.0,34.0,29.95,SW,236,1.0,4.0,81,0.00,,,0.00,,2013-05-06 05:52:00,
2013-05-05 23:02:00,39.0,34.0,29.95,WSW,243,1.0,4.0,82,0.00,,,0.00,,2013-05-06 06:02:00,
2013-05-05 23:12:00,39.0,34.0,29.95,WSW,243,1.0,4.0,82,0.00,,,0.00,,2013-05-06 06:12:00,
2013-05-05 23:21:00,39.0,34.0,29.95,NW,305,0.0,0.0,82,0.00,,,0.00,,2013-05-06 06:21:00,
2013-05-05 23:31:00,39.0,34.0,29.95,NW,305,0.0,0.0,82,0.00,,,0.00,,2013-05-06 06:31:00,
2013-05-05 23:41:00,39.0,34.0,29.95,NW,305,0.0,0.0,82,0.00,,,0.00,,2013-05-06 06:41:00,
2013-05-05 23:52:00,39.0,34.0,29.95,NW,305,0.0,0.0,82,0.00,,,0.00,,2013-05-06 06:52:00,